www.pogodaiklimat.ru

Погода и климат >> Архив погоды >> Индия >> Бихар >> Бхагалпур


ПОГОДА в Бхагалпуре

  • Прогноз погоды в Бхагалпуре
  • Монитор погоды в Бхагалпуре

АРХИВ ПОГОДЫ в Бхагалпуре

Время (UTC), дата Ветер
(напр.,м/с)
 
Видим.   Явления Облачность Т
(С)
Тd
(С)
f
(%)
Тe
(С)
Тes
(С)
Комфортность P
(гПа)
Po
(гПа)
Тmin
(С)
Tmax
(С)
R
(мм)
R24
(мм)
S
(см)
03 18.08 штиль 0 1000 м дымка 10/8 540 м
[Cb calv Ac trans]
+29.2 +27.5 91 +47 +48 опасность
перегрева
1005.2 999.6 +26.5 3
06 18.08 штиль 0 2000 м мгла 9/6 540 м
[Cb calv Ac trans]
+33.6 +28.2 73 +55 +61 опасность
перегрева
1004.7 999.2
09 18.08 штиль 0 2000 м мгла 9/5 540 м
[Sc diur, vesp Ac trans]
+35.6 +26.5 59 +52 +56 опасность
перегрева
1002.7 997.3
12 18.08 штиль 0 2000 м мгла 9/5 540 м
[Sc diur, vesp Ac trans]
+33.6 +26.7 67 +51 +51 опасность
перегрева
1002.4 996.9 +35.6
15 18.08 штиль 0 1000 м дымка 9/4 540 м
[Sc Ac trans]
+31.0 +26.8 78 +48 +48 опасность
перегрева
1004.8 999.3
18 18.08 штиль 0 1000 м зарница 9/6 540 м
[Cb calv Ac trans]
+30.0 +26.7 83 +47 +47 опасность
перегрева
1005.9 1000.4
21 18.08 штиль 0 1000 м зарница 9/6 540 м
[Cb calv Ac trans]
+28.8 +26.6 88 +45 +45 опасность
перегрева
1005.0 999.4
00 19.08 штиль 0 1000 м дымка 8/5 540 м
[Cb calv Ac trans]
+28.0 +26.6 92 +43 +43 опасность
перегрева
1004.8 999.2
03 19.08 штиль 0 2000 м дымка 8/6 540 м
[Sc diur, vesp Ac trans]
+29.8 +26.2 81 +45 +49 опасность
перегрева
1005.3 999.8 +26.4
06 19.08 штиль 0 2000 м слаб. дождь 10/6 450 м
[Cb calv As op]
+33.0 +26.0 67 +49 +51 опасность
перегрева
1006.0 1000.5 0.0
09 19.08 штиль 0 2000 м мгла {дождь} 9/6 480 м
[Cb calv Ac trans]
+33.6 +27.3 70 +53 +56 опасность
перегрева
1003.8 998.3 0.0
12 19.08 штиль 0 2000 м дымка {дождь} 9/6 540 м
[Sc diur, vesp Ac trans]
+31.6 +27.2 78 +50 +50 опасность
перегрева
1002.1 996.6 +35.6 0.0
15 19.08 штиль 0 2000 м дымка 8/5 540 м
[Sc Ac trans]
+30.4 +27.1 83 +48 +48 опасность
перегрева
1004.4 998.9 0.0
18 19.08 штиль 0 1000 м слаб. дождь 10/8 450 м
[Cb cap As op]
+30.0 +27.2 85 +48 +48 опасность
перегрева
1005.1 999.6 0.2
21 19.08 штиль 0 1000 м слаб. дождь 10/8 450 м
[Cb cap As op]
+29.0 +27.1 90 +46 +46 опасность
перегрева
1004.7 999.1 0.5
00 20.08 штиль 0 1000 м дымка 9/5 540 м
[Sc Ac trans]
+28.0 +26.6 92 +43 +43 опасность
перегрева
1004.7 999.1 0.5
03 20.08 штиль 0 1000 м дымка 9/6 540 м
[Cb calv Ac trans]
+30.0 +26.9 84 +47 +50 опасность
перегрева
1006.0 1000.5 +26.8 0.5
06 20.08 штиль 0 2000 м мгла 9/6 540 м
[Sc diur, vesp Ac trans]
+35.0 +27.9 67 +56 +62 опасность
перегрева
1004.1 998.7
09 20.08 штиль 0 2000 м в посл. час дождь 9/6 540 м
[Sc diur, vesp Ac trans]
+34.0 +28.0 71 +55 +58 опасность
перегрева
1002.0 996.6 0.2
12 20.08 штиль 0 2000 м мгла {дождь} 9/6 540 м
[Sc diur, vesp Ac trans]
+33.2 +27.4 72 +52 +53 опасность
перегрева
1000.5 995.0 +36.4 0.2
15 20.08 штиль 0 2000 м мгла {дождь} 8/5 540 м
[Sc Ac trans]
+31.6 +27.5 79 +51 +51 опасность
перегрева
1002.0 996.5 0.2
18 20.08 штиль 0 1000 м зарница 9/6 540 м
[Cb calv Ac trans]
+30.0 +27.2 85 +48 +48 опасность
перегрева
1003.0 997.5 0.2
21 20.08 штиль 0 1000 м зарница 10/6 450 м
[Cb cap As op]
+29.6 +27.4 88 +48 +48 опасность
перегрева
1002.5 997.0 0.2
00 21.08 штиль 0 1000 м дымка 9/5 540 м
[Sc Ac trans]
+29.4 +27.5 90 +48 +48 опасность
перегрева
1002.8 997.3 0.2
03 21.08 штиль 0 1000 м дымка 8/5 540 м
[Sc Ac trans]
+30.6 +27.9 86 +51 +55 опасность
перегрева
1003.3 997.8 +28.0 0.2
06 21.08 штиль 0 2000 м мгла 8/6 540 м
[Sc diur, vesp Ac trans]
+35.0 +28.2 68 +56 +64 опасность
перегрева
1002.7 997.3
09 21.08 штиль 0 2000 м мгла 9/6 540 м
[Cb calv Ac trans]
+36.6 +27.6 60 +56 +59 опасность
перегрева
1001.8 996.4
12 21.08 штиль 0 2000 м мгла {дождь} 9/5 540 м
[Sc diur, vesp Ac trans]
+34.0 +28.6 74 +57 +57 опасность
перегрева
1001.1 995.7 +36.0 0.0
15 21.08 штиль 0 1000 м дымка {дождь} 6/4 600 м
[Sc Ac trans]
+31.0 +27.7 83 +51 +51 опасность
перегрева
1002.4 996.9 0.0
18 21.08 штиль 0 1000 м дымка 8/5 540 м
[Sc Ac trans]
+29.8 +27.3 86 +47 +47 опасность
перегрева
1004.0 998.5 0.0
21 21.08 штиль 0 1000 м дымка 8/5 540 м
[Sc Ac trans]
+29.0 +26.8 88 +45 +45 опасность
перегрева
1003.6 998.1 0.0
00 22.08 штиль 0 1000 м дымка 6/4 600 м
[Sc Ac trans]
+29.2 +26.7 86 +45 +45 опасность
перегрева
1003.0 997.5 0.0
03 22.08 штиль 0 1000 м дымка 6/4 540 м
[Sc Ac trans]
+31.4 +28.1 83 +52 +59 опасность
перегрева
1002.1 996.6 +28.4 0.0
06 22.08 штиль 0 2000 м мгла 9/6 540 м
[Sc diur, vesp Ac trans]
+35.2 +28.9 70 +58 +65 опасность
перегрева
1002.5 997.1
09 22.08 штиль 0 2000 м мгла 10/8 540 м
[Cb calv As op]
+34.0 +28.3 72 +55 +56 опасность
перегрева
1001.5 996.1
12 22.08 штиль 0 2000 м слаб. дождь 10/8 450 м
[Cb calv As op]
+32.0 +27.9 79 +52 +52 опасность
перегрева
1000.8 995.3 +36.6 0.0
15 22.08 штиль 0 1000 м дымка {дождь} 6/4 600 м
[Sc Ac trans]
+30.4 +26.5 80 +47 +47 опасность
перегрева
1002.4 996.9 0.0
18 22.08 штиль 0 1000 м дымка {дождь} 6/4 600 м
[Sc Ac trans]
+29.6 +26.5 83 +45 +45 опасность
перегрева
1002.8 997.3 0.0
21 22.08 штиль 0 1000 м дымка 8/4 600 м
[Sc Ac trans]
+28.8 +26.3 86 +44 +44 опасность
перегрева
1002.4 996.9 0.0
00 23.08 штиль 0 1000 м дымка 6/4 600 м
[Sc Ac trans]
+28.2 +24.5 80 +40 +40 очень
душно
1002.0 996.4 0.0
03 23.08 штиль 0 1000 м дымка 10/6 540 м
[Cb calv As op]
+30.0 +26.9 84 +47 +48 опасность
перегрева
1003.1 997.6 +26.8 0.0
06 23.08 штиль 0 2000 м мгла 9/5 540 м
[Cb calv Ac trans]
+33.6 +28.2 73 +55 +62 опасность
перегрева
1003.7 998.2
09 23.08 штиль 0 2000 м мгла 9/6 540 м
[Cb calv Ac trans]
+37.0 +28.9 63 +60 +63 опасность
перегрева
1000.7 995.3
12 23.08 штиль 0 2000 м мгла {дождь} 9/6 540 м
[Cb calv Ac trans]
+32.6 +29.1 82 +56 +57 опасность
перегрева
1001.4 995.9 +36.5 1
15 23.08 штиль 0 1000 м дымка 6/4 600 м
[Sc Ac trans]
+30.6 +28.4 88 +52 +52 опасность
перегрева
1003.6 998.1 1
18 23.08 штиль 0 1000 м дымка 6/4 600 м
[Sc Ac trans]
+29.6 +26.8 85 +46 +46 опасность
перегрева
1004.1 998.6 1
21 23.08 штиль 0 1000 м слаб. дождь 6/4 600 м
[Sc Ac trans]
+28.8 +26.6 88 +45 +45 опасность
перегрева
1003.7 998.1 1
00 24.08 штиль 0 1000 м дымка {дождь} 10/6 540 м
[Cb calv As op]
+27.6 +26.8 95 +43 +43 опасность
перегрева
1004.2 998.6 15
03 24.08 штиль 0 1000 м слаб. дождь 10/8 450 м
[Cb calv As op]
+27.4 +26.8 97 +43 +43 опасность
перегрева
1005.2 999.6 +25.8 16
06 24.08 штиль 0 1000 м дымка {дождь} 9/6 540 м
[Cb calv Ac trans]
+30.6 +27.9 86 +51 +57 опасность
перегрева
1005.2 999.7
09 24.08 СВ 1 1000 м в посл. час дождь 9/6 540 м
[Cb calv Ac trans]
+32.0 +28.8 83 +55 +58 опасность
перегрева
1003.0 997.5 4
12 24.08 штиль 0 1000 м дымка {дождь} 9/5 540 м
[Sc Ac trans]
+30.4 +27.7 86 +50 +50 опасность
перегрева
1001.3 995.8 +32.8 4
15 24.08 штиль 0 1000 м дымка 8/4 540 м
[Sc Ac trans]
+29.4 +27.5 90 +48 +48 опасность
перегрева
1003.3 997.8 4
18 24.08 штиль 0 1000 м зарница 8/5 540 м
[Cb calv Ac trans]
+29.0 +27.3 91 +47 +47 опасность
перегрева
1004.5 998.9 4
21 24.08 штиль 0 1000 м зарница 9/6 540 м
[Cb calv Ac trans]
+28.4 +27.3 94 +45 +45 опасность
перегрева
1003.7 998.1 4
00 25.08 штиль 0 1000 м дымка 10/6 450 м
[Cb calv As op]
+28.2 +27.1 94 +45 +45 опасность
перегрева
1003.7 998.1 4

 

Местоположение метеостанции Бхагалпур (Бихар, Индия): широта 25.23 долгота 86.95 высота над уровнем моря 49 м.

В архиве по умолчанию представлена погода в Бхагалпуре за последнюю неделю. Архивные данные за месяц целиком и за предыдущие месяцы, начиная с января 2011 года, Вы можете получить, выбрав интересующий диапазон дат из раскрывающегося списка и нажав кнопку "Ввод!".


*Определитесь, кто Вы:
робот инопланетянин человек

Внимание! Время в таблицах - всемирное. Для получения местного времени необходимо прибавить поправку, которая равна 5.5 ч.

Смотрите также архив погоды в соседних городах и на ближайших метеорологических станциях:

Погода в Пурнеа (Бихар, Индия) (53 км)
Погода в Малда (Западная Бенгалия, Индия) (121 км)
Погода в Биратнагаре (Непал) (142 км)
Погода в Бадалхачги (Бангладеш) (156 км)
Погода в Асансоле (Западная Бенгалия, Индия) (172 км)
Погода в Динаджпуре (Бангладеш) (180 км)
Погода в Бахарампуре (Западная Бенгалия, Индия) (181 км)
Погода в Балургхате (Западная Бенгалия, Индия) (184 км)
Погода в Димле (Бангладеш) (187 км)
Погода в Патне (Бихар, Индия) (190 км)

Пояснения к столбцам:

Ветер - указаны скорость ветра в м/с - средняя за 10 мин, порывы в срок и между сроками (в фигурных скобках) и направление, откуда дует ветер: С - северный, СВ - северо-восточный, В - восточный, ЮВ - юго-восточный, Ю - южный, ЮЗ - юго-западный, З - западный, СЗ - северо-западный.
Видимость - горизонтальная дальность видимости в метрах или километрах. При видимости от 1 до 10 км при отсутствии осадков обычно наблюдается дымка, при ухудшении видимости до 1 км и менее - туман. В сухую погоду видимость может ухудшаться дымом, пылью или мглою.
Явления - указаны атмосферные явления, наблюдавшиеся в срок или в последний час перед сроком; фигурными скобками обозначены явления, наблюдавшиеся между сроками (за 1-3 часа до срока); квадратными скобками обозначены град или гололедные отложения с указанием их диаметра в мм.
Облачность - указаны через наклонную черту общая и нижняя облачность в баллах и высота нижней границы облаков в метрах; квадратными скобками обозначены формы облаков: Ci - перистые, Cs - перисто-слоистые, Cc - перисто-кучевые, Ac - высококучевые, As - высокослоистые, Sc - слоисто-кучевые, Ns - слоисто-дождевые, Cu - кучевые, Cb - кучево-дождевые. Подробнее классификацию облаков см. в Атласе облаков (PDF).
T - Температура воздуха - температура, измеренная на высоте 2 м над землей.
Td - Температура точки росы - температура, при понижении до которой содержащийся в воздухе водяной пар достигнет насыщения.
f - Относительная влажность воздуха - влажноcть воздуха, измеренная на высоте 2 м над землей.
Te - Эффективная температура - температура, которую ощущает одетый по сезону человек в тени. Характеристика душности погоды. При расчете учитывается влияние влажности воздуха и скорости ветра на теплоощущения человека.
Tes - Эффективная температура на солнце - температура, которую ощущает человек, с поправкой на солнечный нагрев. Характеристика знойности погоды. Зависит от высоты солнца над горизонтом, облачности и скорости ветра. Ночью, в пасмурную погоду, а также при ветре 12 м/с и более поправка равна нулю.
P - Атмосферное давление - приведенное к уровню моря атмосферное давление.
Po - Атмосферное давление - измеренное на уровне метеостанции атмосферное давление.
Tmin - Минимальная температура - минимум температуры воздуха на высоте 2 м над землей.
Tmax - Максимальная температура - максимум температуры воздуха на высоте 2 м над землей.
R - Количество осадков - Количество выпавших осадков за период времени, мм. При наведении курсора мыши на число - период времени, за который выпало указанное количество осадков.
R24 - Количество осадков - Количество выпавших осадков за 24 часа, мм.
S - Снежный покров - Высота снежного покрова, см. При наведении курсора мыши на число - состояние снежного покрова и степень покрытия местности в баллах.